Regional Weather Roundup
Issued by NWS Albany, NY

Home | Current Version | Previous Version | Text Only | Print | Product List | Glossary On
Versions: 1 2 3 4 5 6 7 8 9 10 11 12 13 14 15 16 17 18 19 20 21 22 23 24 25 26 27 28 29 30 31 32 33 34 35 36 37 38 39 40 41 42 43 44 45 46 47 48 49 50
000
ASUS41 KALY 220310
RWRALY

NEW YORK STATE HOURLY WEATHER ROUNDUP
NATIONAL WEATHER SERVICE ALBANY NY
1100 PM EDT TUE OCT 21 2014

NOTE: "FAIR" INDICATES FEW OR NO CLOUDS BELOW 12,000 FEET WITH NO
SIGNIFICANT WEATHER AND/OR NO OBSTRUCTIONS TO VISIBILITY.

NYZ032-033-038>043-046>054-057>066-NYZ062>081-220400-
EAST


CITY           SKY/WX    TMP DP  RH WIND       PRES   REMARKS
ALBANY         LGT RAIN  50  47  89 N7        30.02R FOG
GLENS FALLS    CLOUDY    50  45  83 N7        30.04R
POUGHKEEPSIE   CLOUDY    53  51  93 N6        29.96R
NEWBURGH       LGT RAIN  52  52 100 VRB3      29.96R
MONTGOMERY     LGT RAIN  53  50  89 NE12      29.94R
WHITE PLAINS   MOCLDY    54  51  90 N6        29.91S
ISLIP          RAIN      57  54  89 N5        29.90R
NEW YORK CITY  MOCLDY    59  53  80 NE12      29.90S
CENTRAL PARK   CLOUDY    56  53  90 VRB5      29.93S
$$

NYZ005>009-017-018-044>046-055-056-220400-
CENTRAL


CITY           SKY/WX    TMP DP  RH WIND       PRES   REMARKS
FULTON         CLOUDY    47  44  90 N13       30.04R
SYRACUSE       CLOUDY    51  49  94 N7        30.01R
ROME           CLOUDY    51  46  83 N3        30.03R
ELMIRA         CLOUDY    52  49  89 N3        29.99R
BINGHAMTON     CLOUDY    49  48  97 N6        29.97R
MONTICELLO     CLOUDY    48  48 100 E5        29.97R
$$

NYZ026>034-041>043-220400-
NORTH


CITY           SKY/WX    TMP DP  RH WIND       PRES   REMARKS
WATERTOWN      CLOUDY    46  39  76 NE13      30.09R
FORT DRUM      NOT AVBL
MASSENA        CLOUDY    45  34  65 NE15G22   30.16R
SARANAC LAKE   CLOUDY    41  41 100 NE8       30.06S FOG
PLATTSBURGH    CLOUDY    45  43  93 N13       30.11R
$$

NYZ001>004-010>016-019>021-220400-
WEST


CITY           SKY/WX    TMP DP  RH WIND       PRES   REMARKS
NIAGARA FALLS  LGT RAIN  44  42  93 NE13      30.11R
BUFFALO        DRIZZLE   45  43  93 NE10      30.09S FOG
DUNKIRK        LGT RAIN  47  45  93 NE10      30.09R
JAMESTOWN      CLOUDY    43  41  93 NE14      30.05R VSB 3/4
WELLSVILLE     CLOUDY    46  44  93 N7        30.01R
ROCHESTER      LGT RAIN  47  44  90 NE16      30.08R
PENN YAN       LGT RAIN  49  47  93 N9        30.02R FOG
$$

             KEY
       WCI = WIND CHILL INDEX
       VSB = VISIBILITY
       HX  = HEAT INDEX
$$



USA.gov is the U.S. government's official web portal to all federal, state and local government web resources and services.